Simultaneous Nadir Overpasses (SNOs) Predictions

Prediction of SNOs between LANDSAT-8 and METOP-B Satellite Orbit:

Table of predicted SNOs for the next 14.0 days since TLE Epoch: 4/18/2020
Index Date (LANDSAT-8) Time (LANDSAT-8) Lat,Lon (LANDSAT-8) SZA (LANDSAT-8 ) Date (METOP-B) Time (METOP-B) Lat,Lon (METOP-B) SZA (METOP-B ) Distance(km) Time Diff (sec)
1 04/19/2020 00:24:36 81.08,-147.45 71.82 04/19/2020 00:23:52 81.08,-147.38 71.81 1.39 44
2 04/19/2020 01:14:02 -81.10, 20.52 108.14 04/19/2020 01:14:31 -81.11, 20.52 108.13 0.30 29
3 04/21/2020 19:58:49 81.08, -81.05 70.88 04/21/2020 19:58:14 81.08, -81.08 70.86 0.62 35
4 04/21/2020 20:48:15 -81.10, 86.96 109.08 04/21/2020 20:48:53 -81.10, 86.85 109.08 1.90 38
5 04/24/2020 15:33:02 81.10, -14.31 70.01 04/24/2020 15:32:36 81.09, -14.42 69.98 2.18 26
6 04/24/2020 16:22:28 -81.13, 153.72 109.95 04/24/2020 16:23:14 -81.13, 153.91 109.91 3.16 46
7 04/27/2020 11:07:16 81.09, 52.05 69.11 04/27/2020 11:06:58 81.10, 52.23 69.12 3.18 18
8 04/27/2020 11:56:42 -81.12,-139.90 110.84 04/27/2020 11:57:37 -81.12,-139.79 110.81 1.89 55
9 04/30/2020 06:41:29 81.09, 118.38 68.23 04/30/2020 06:41:20 81.09, 118.49 68.25 2.16 9




NCC Satellite Simultaneous Nadir Overpasses (SNOs) Prediction Service
